星链-37158(STARLINK-37158)

导读

STARLINK-37158(NORAD编号68343)是SpaceX星链星座的一员,属于低轨互联网通信卫星。星链计划旨在近地轨道部署数万颗卫星,为全球提供高速宽带互联网服务。该卫星配备先进相控阵天线与激光星间链路,可实现高速数据传输,支持流媒体、在线游戏等应用。采用氩气离子推进系统,具备轨道机动与脱轨能力,采用太阳能供电,保障可靠运行,助力星链实现全球覆盖的低延迟网络服务。

基本信息
目录编号:
68343
目录名称:
STARLINK-37158
国际标识:
2026-059Y
轨道中心:
EARTH
卫星名称:
星链-37158
卫星全名:
星链-37158(STARLINK-37158)
卫星状态:
在轨 (已飞行173 天)
发射日期:
2026-03-22 UTC
国别 :
美国 (US)
星等 :
--
该卫星已列入 空间交会检测服务 Space Conjunction Data Service (SCDS) ,当前飞行风险评估等级: 无高风险
轨道信息
数据来源 国际轨道数据 AOE轨道数据
星历时间 2026-09-11T13:48:52+0800
13小时前
查看轨道信息
2026-09-06T00:00:00+0800
6天前
查看轨道信息
半长轴 6840.804km 6840.847km
偏心率 0.0001008 0.0001448
轨道倾角 53.159° 53.155°
近地点辐角 92.154° 70.810°
升交点赤经 199.345° 225.407°
平近点角 267.958° 73.569°
近地点 461.977km 461.719km
远地点 463.357km 463.701km
周期 93.847分钟 93.848分钟
每日圈数 15.344125 15.343978
详细信息
固有亮度:
5
最大亮度:
2.5
卫星平台:
Starlink V1.0
覆盖范围:
全球
运营商:
太空探索技术公司
运营商所在国:
美国
制造商(研发单位):
太空探索技术公司
制造商所在国:
美国
使用方式:
暂无
卫星简介
Starlink 计划是 SpaceX 推出的全球卫星互联网项目,通过发射低轨道卫星,为全球尤其是偏远地区提供高速、低延迟的互联网服务。自 2019 年起,Starlink 已部署数千颗卫星,旨在缩小全球数字鸿沟,推动互联网普及。该项目还为军事、航空等行业提供通信支持,带来广泛经济效益。
2D轨道图
3D轨道图
轨道高度分析图
轨道倾角分析图
轨道综合分析图
查看轨道综合分析图
交会数据列表
事件ID 空间交会对象 最接近时刻(TCA) 交会距离 交会风险概率(CRP) 交会风险指数(CRI) 操作
CDM_260913-170005-245306-834321
2026-09-13T
17:00:29+0000
0.282 km
中距离
4.724056E-4 高风险 0.88
CDM_260912-163805-419906-834321
2026-09-12T
16:38:11+0000
0.484 km
远距离
9.284587E-5 中风险 0.74
CDM_260913-195006-073706-834321
2026-09-13T
19:50:34+0000
1.261 km
极远距离
7.469829E-6 低风险 0.52
CDM_260913-120806-834306-913021
2026-09-13T
12:08:24+0000
1.571 km
极远距离
4.925193E-6 低风险 0.49
CDM_260913-020905-245306-834321
2026-09-13T
02:09:28+0000
1.722 km
极远距离
3.41068E-6 低风险 0.46
CDM_260912-144506-834306-875622
2026-09-12T
14:45:25+0000
1.917 km
极远距离
3.17832E-6 低风险 0.45
CDM_260913-034305-245306-834321
2026-09-13T
03:43:16+0000
2.192 km
极远距离
1.829183E-6 低风险 0.4
CDM_260913-152605-245306-834321
2026-09-13T
15:26:42+0000
2.346 km
极远距离
1.586918E-6 低风险 0.39
CDM_260912-031405-306106-834322
2026-09-12T
03:14:09+0000
2.696 km
极远距离
1.457299E-6 低风险 0.38
CDM_260913-183405-245306-834321
2026-09-13T
18:34:17+0000
2.656 km
极远距离
1.277345E-6 低风险 0.37
与全量物体交会距离演化趋势
与全量物体交会风险概率演化趋势